User: anonymous
Location: Oshawa
(43.9000°N, 78.8670°W)
Time: 06:41:41
(UTC-04:00)
Language:

Cosmos 1821 Rocket - Orbit

View from above orbital plane
View from above orbital plane
View from above satellite
View from above satellite

Ground track
Ground track

The orbit data is extracted from the following two-line orbital elements,

1 17526U 87017B   14208.81203037  .00000065  00000-0  50571-4 0  1134
2 17526 082.9034 108.8012 0040889 029.4612 032.0846 13.76690662361135
Epoch (UTC): 27 July 2014 19:29:19
Eccentricity: 0.0040889
inclination: 82.9034°
perigee height: 945 km
apogee height: 1006 km
right ascension of ascending node: 108.8012°
argument of perigee: 29.4612°
revolutions per day: 13.76690662
mean anomaly at epoch: 32.0846°
orbit number at epoch: 36113

The dashed part of the orbit path shows where the satellite is in the earth's shadow,  

DLR